一网星座-0211星 (ONEWEB-0211 )

导读 | 豆包AI

ONEWEB-0211是英国OneWeb星座旗下的低轨通信卫星,于北京时间2021年5月28日发射入轨,隶属于OneWeb第一代低轨卫星互联网星座系统。该星座计划构建全球卫星宽带网络,主要为全球偏远地区、基础设施薄弱区域提供低成本互联网接入服务,作为星座组网卫星之一,ONEWEB-0211承担着全球宽带信号覆盖与数据传输任务,助力OneWeb低轨星座实现全球互联的战略目标。

Basic Information
目录编号:
48767
目录名称:
ONEWEB-0211
国际标识:
2021-045A
轨道中心:
EARTH
卫星名称:
一网星座-0211星
卫星全名:
一网星座-0211星 (ONEWEB-0211 )
卫星状态:
在轨 (已飞行1751 天)
发射日期:
2021-05-28 UTC
国别 :
英国 (GB)
星等 :
--
Orbit Information
数据来源 国际轨道数据 AOE轨道数据
星历时间 2026-03-14T06:30:14+0800
11小时前
查看轨道信息
2026-03-11T09:00:00+0800
3天前
查看轨道信息
半长轴 7577.621km 7577.616km
偏心率 0.0002098 0.0002025
轨道倾角 87.894° 87.893°
近地点辐角 93.998° 101.842°
升交点赤经 278.119° 278.699°
平近点角 266.139° 224.603°
近地点 1197.894km 1197.944km
远地点 1201.074km 1201.014km
周期 109.410分钟 109.410分钟
每日圈数 13.161443 13.161455
Detailed Information
平衡模式:
三轴稳定
覆盖范围:
全球
运营商:
一网卫星公司
运营商所在国:
英国
制造商(研发单位):
一网卫星公司
制造商所在国:
英国
使用方式:
暂无
Satellite Introduction
OneWeb卫星网络由648颗重约125公斤的微型卫星组成,运行在1200公里的轨道上。 每颗卫星都能够提供至少每秒8千兆位的吞吐量,以使用其高吞吐量的Ku频段有效载荷为家庭和移动平台提供互联网接入。该卫星仍在工作。
2D Orbit Map
3D Orbit Map
Orbit Altitude Analysis Chart
Orbit Inclination Analysis Chart
Orbit Comprehensive Analysis Chart
View Comprehensive Chart